Skip Page Navigation
NASA JPL Caltech
NASA Logo - Jet Propulsion Laboratory + View the NASA Portal
+ Center for Near-Earth Object Studies
JPL Home Earth Solar System Stars & Galaxies Technology
JPL Solar System Dynamics
BODIES ORBITS EPHEMERIDES TOOLS PHYSICAL DATA DISCOVERY FAQ SITE MAP
IMPORTANT: The SSD Announcement email list is now available. Major changes are coming in the near future, including possible hostname and/or URL changes. To be notified of such changes, subscribe to this email list.

Please visit this page for more details.


JPL Small-Body Database Browser
Search: [ help ]  
71541 (2000 CK115)
Classification: Outer Main-belt Asteroid          SPK-ID: 2071541
Ephemeris | Orbit Diagram | Orbital Elements | Mission Design | Physical Parameters | Discovery Circumstances | Close-Approach Data ]

[ show orbit diagram ]
Orbital Elements at Epoch 2458600.5 (2019-Apr-27.0) TDB
Reference: JPL 15 (heliocentric ecliptic J2000)
 Element Value Uncertainty (1-sigma)   Units 
e .09626795835560681 7.1777e-08  
a 3.227545165561166 2.8015e-08 au
q 2.916835981972084 2.2993e-07 au
i .8492021457151538 8.5016e-06 deg
node 165.9249396175162 0.00031239 deg
peri 29.75550594924577 0.00031415 deg
M 57.80904823636997 3.098e-05 deg
tp 2458260.405007149134
(2018-May-21.90500715)
0.00018238 TDB
period 2117.907164388907
5.80
2.7575e-05
7.55e-08
d
yr
n .1699791218676353 2.2131e-09 deg/d
Q 3.538254349150249 3.0712e-08 au
  Orbit Determination Parameters
   # obs. used (total)      460  
   data-arc span      7136 days (19.54 yr)  
   first obs. used      1998-11-22  
   last obs. used      2018-06-06  
   planetary ephem.      DE431  
   SB-pert. ephem.      SB431-N16  
   condition code      0  
   norm. resid. RMS      .57238  
   source      ORB  
   producer      Otto Matic  
   solution date      2019-Jul-13 07:38:24  

Additional Information
 Earth MOID = 1.91585 au 
 Jupiter MOID = 1.41931 au 
 T_jup = 3.180 
[ show covariance matrix ]

Ephemeris | Orbit Diagram | Orbital Elements | Mission Design | Physical Parameters | Discovery Circumstances | Close-Approach Data ]

Physical Parameter Table
Parameter Symbol Value Units Sigma Reference Notes
absolute magnitude H 14.9   n/a MPO436283  

71541 (2000 CK115)          Discovered 2000-Feb-03 by LINEAR at Socorro
Reference: 20031109/Numbers.arcLast Updated: 2004-04-19

[ show close-approach data ]
Alternate Designations
 2000 CK115 = 1998 WY39 
Ephemeris | Orbit Diagram | Orbital Elements | Mission Design | Physical Parameters | Discovery Circumstances | Close-Approach Data ]
ABOUT SSD CREDITS/AWARDS PRIVACY/COPYRIGHT GLOSSARY LINKS
FirstGov 2019-Oct-17 14:16 UT
(server date/time)  
NASA Home Page
Site Manager:   Ryan S. Park
Webmaster  Alan B. Chamberlin